CAPE
1657 1646 1032 432 370 207 101 66 72 93 111 101 51 73 45 393 219 95 65 0 491 943 1258 1453 1979 1910 1681 1272 1251 1291 1415 1185 1111 1170 875 899 895 952 1047 1109 988 1019 1138 1032 976 1125 1137 962 670
434 651 708 911 345 51 98 170 215 186 136 106 49 110 159 464 648 246 86 136 574 1061 1343 1053 1863 1919 1896 1619 1396 1179 1186 1131 1150 1248 1341 1319 1333 1402 1404 1112 1037 1054 1187 1155 1071 1005 1145 1061 1179
959 870 929 937 340 58 113 280 392 308 364 202 12 102 263 720 386 46 152 397 871 955 1275 953 1923 1832 1418 1327 1677 1523 1614 1107 1245 1524 1370 1356 1300 1301 1327 1352 1196 1023 1102 1358 1337 1312 1426 1164 1151
977 1116 1290 928 330 76 115 335 516 365 434 315 73 167 448 672 93 391 158 708 873 989 1181 1789 2030 1258 1343 1155 1280 1191 1357 1257 1202 1447 1280 1087 992 989 1047 1090 1168 1224 1265 1055 1087 1084 1516 1314 1100
820 1282 739 514 191 12 71 368 480 224 347 54 15 273 473 579 578 356 502 618 677 897 1093 1643 2258 2096 1872 1447 1173 1189 1183 1317 1337 1229 1138 1003 1153 1099 1087 1057 1090 1177 1169 1057 1114 1161 1325 1303 1148
542 488 92 55 16 20 90 473 184 239 76 103 159 261 393 596 514 566 448 437 581 858 1043 1522 2121 2285 1547 1076 1050 1085 1110 1148 1247 1079 938 883 1046 1191 1143 1175 1169 1189 1136 1403 1089 1294 1481 1353 1122
713 561 364 638 15 28 185 259 268 71 12 66 66 155 375 579 494 509 378 412 601 903 1293 1461 1692 1677 1578 1324 1107 1204 1351 1385 1302 1007 1010 1109 1170 1098 1121 1180 1205 1188 1436 1378 1546 1113 1468 1448 983
606 464 445 568 8 27 297 384 89 15 122 122 80 239 285 520 504 379 284 356 677 1152 1333 1463 1519 1621 1349 1177 1872 1870 1664 1451 1334 1340 1456 1402 1213 1087 1119 1683 1465 1271 1307 1386 1540 1385 1405 1769 1016
409 61 145 294 204 36 217 191 82 113 135 57 23 131 153 484 414 262 263 322 558 943 1144 1327 1339 1171 1108 1063 1214 2022 1594 1581 1536 1491 1552 1287 899 906 1524 1290 1378 1190 1142 1204 1448 1613 1714 1577 1155
94 83 214 310 644 497 72 84 102 236 110 74 118 187 302 306 280 251 239 242 328 582 815 1173 1319 1178 1198 1194 1346 1472 1392 1357 1321 1224 1068 925 1219 1125 1194 1258 1366 1220 1267 1373 1490 1530 1266 1212 1199
98 93 465 570 615 595 0 45 124 230 96 103 164 221 266 188 206 232 175 217 241 367 581 852 1074 1037 1098 1109 1235 1375 1370 1297 1185 1081 906 821 1245 1120 1257 1236 1161 1192 1266 1309 1385 1898 1722 1428 1020
100 418 439 657 497 438 0 12 99 154 142 133 219 150 215 216 296 344 236 316 314 349 486 704 858 865 902 935 1008 1088 1302 1149 1076 898 946 1183 1080 1152 1099 1084 1113 888 1064 1310 1360 1365 1247 1228 1218
288 221 306 564 643 403 3 18 82 125 189 329 75 115 160 240 302 377 303 297 343 289 362 531 658 739 754 823 745 821 1032 1092 948 973 1128 1132 973 863 934 815 836 1044 1215 1284 1286 1240 1223 1099 1033
378 392 465 575 641 298 21 57 78 109 247 322 28 121 157 237 309 336 351 347 363 384 358 304 444 581 591 631 574 503 570 757 832 951 1034 935 782 731 690 728 718 1004 1355 1596 1305 1152 989 837 549
257 210 486 346 317 159 121 93 141 167 263 273 0 18 176 230 282 330 349 352 357 374 438 450 308 376 403 408 292 396 472 488 704 785 817 751 650 761 803 717 838 961 1338 1471 1308 1357 1154 936 703
397 374 337 200 273 238 169 147 161 232 272 294 145 0 0 62 175 260 298 298 310 336 404 474 303 370 479 395 260 268 606 685 620 649 620 593 653 728 687 848 946 1037 1261 1429 1275 1274 1268 1249 1185
115 125 223 277 180 290 225 132 132 258 347 296 270 17 0 3 11 36 149 269 281 363 431 470 318 408 505 518 422 400 652 762 912 923 771 797 822 889 831 826 921 969 1050 1193 1367 1403 1329 1281 1193
42 81 57 63 183 201 344 222 203 205 351 311 347 285 25 14 30 42 67 124 133 223 376 417 394 384 520 695 633 522 607 757 859 932 879 893 1089 1144 1177 990 1037 1042 1014 1113 1165 1331 1362 1279 1188
281 303 340 389 305 245 152 330 264 148 284 307 220 257 333 22 35 82 111 138 193 196 203 295 375 486 563 633 890 770 658 624 676 728 938 1060 926 1041 1189 1201 1149 1192 1047 945 1093 881 852 908 1140
347 339 301 222 101 283 236 258 285 173 173 241 340 417 422 268 29 53 117 165 195 252 238 246 351 498 657 764 866 1069 912 849 883 890 915 993 921 1034 1159 1160 1185 1267 1198 868 911 921 837 912 932
83 86 59 60 158 294 334 302 309 232 165 300 413 492 571 589 387 26 49 112 120 212 230 256 335 480 643 743 850 1070 1005 918 917 958 976 847 821 878 895 994 1031 1043 1050 1054 972 921 976 1005 913
98 105 96 159 229 242 297 14 167 294 218 260 355 456 577 693 670 442 54 88 115 199 229 294 396 450 541 683 863 1045 915 911 858 845 743 674 618 683 887 986 992 971 927 916 880 1040 1065 1065 990
171 74 2 98 240 233 259 142 0 145 252 306 351 465 564 613 687 712 628 228 153 306 586 359 423 464 488 588 791 970 873 856 818 798 908 918 867 746 888 1100 1017 906 885 878 941 967 1082 1075 1079
158 84 0 118 106 1 31 170 0 26 286 385 421 510 644 793 851 916 933 848 671 441 463 720 853 702 618 602 718 859 1043 1165 1245 1272 1289 1200 1142 1244 1256 1321 1575 1656 1832 1890 1559 1554 1573 1435 1298
106 91 7 1 0 2 0 120 127 31 35 173 386 446 572 685 807 778 928 968 949 894 705 604 658 912 1082 1102 1048 934 933 1018 1171 1239 1280 1282 1318 1474 1602 1670 1507 1836 2051 2099 2242 2164 2228 1755 1378
89 46 5 2 0 0 0 0 0 0 24 63 84 86 221 253 372 665 911 1001 989 1075 1079 1102 1109 1056 849 969 954 1002 1130 1094 976 1112 1284 1623 1690 1726 1461 1239 1489 1957 2600 2802 2688 2585 2489 2216 1941
12 0 0 0 0 0 0 0 2 0 18 62 45 80 17 0 30 258 429 598 784 915 1010 1084 1178 1172 1153 1108 1040 1008 1049 1057 1271 1525 1571 1540 1687 1473 466 88 316 1425 2558 2630 2700 2772 2706 2602 2429
0 0 0 0 0 0 0 0 0 0 0 0 0 0 0 29 63 96 172 252 394 467 620 673 826 930 962 953 1016 1017 1104 1164 1293 1417 1327 1484 1637 1476 995 200 426 1548 2470 2584 2837 2910 2617 2329 2173
0 0 0 0 0 0 0 0 0 0 0 0 0 4 32 81 139 279 466 786 1012 1260 1487 1871 2192 2452 2511 2553 2028 1454 1527 1642 1756 1897 1607 1626 1203 896 738 731 514 1838 2534 2906 2707 2143 2109 2229 1838
0 0 0 0 0 0 0 0 0 0 0 4 20 33 76 147 350 688 1064 1265 1404 1653 2007 2356 2490 2470 2607 2667 2637 2367 2198 2075 1033 970 764 569 422 257 318 110 1065 1696 1995 2169 1883 1935 1924 1507 1183
CIN
-109 -98 -157 -263 -105 -103 -45 -50 -10 -24 -88 -95 -51 -48 -61 -117 -40 -79 -255 0 -126 -30 -2 -3 0 0 0 0 0 0 0 0 0 0 -1 -1 -3 -1 0 0 -1 -2 -7 -23 -35 -37 -42 -54 -64
-140 -175 -198 -137 -65 -32 -49 -33 -27 -35 -37 -46 -177 -119 -141 -124 -141 -201 -286 -231 -127 -32 -1 -3 0 0 0 0 0 0 0 0 0 0 0 0 0 0 0 0 0 0 0 -7 -26 -38 -39 -50 -36
-99 -129 -98 -84 -65 -22 -37 -26 -28 -36 -37 -65 -242 -199 -180 -143 -229 -372 -262 -165 -62 -42 -3 -15 0 0 0 0 0 0 0 -2 0 0 0 0 0 0 0 0 0 0 0 0 0 -2 -6 -28 -33
-113 -149 -97 -64 -68 -26 -22 -30 -36 -36 -56 -88 -281 -247 -215 -174 -319 -200 -240 -91 -65 -28 -8 0 0 0 -4 -2 -1 0 0 0 0 0 0 -3 -5 -1 0 0 0 0 0 0 0 0 -1 -1 -18
-201 -97 -59 -57 -92 -36 -32 -44 -43 -25 -26 -113 -81 -224 -191 -149 -137 -180 -148 -113 -102 -39 -11 -1 0 0 0 0 -1 -1 0 0 0 0 0 -3 0 0 0 -1 0 0 0 0 0 0 0 0 0
-44 -65 -51 -35 -22 -29 -72 -55 -37 -30 -83 -258 -271 -255 -194 -168 -180 -132 -135 -119 -90 -65 -21 -1 0 0 0 -6 -5 -5 -3 0 0 0 0 -1 0 0 0 0 0 0 0 0 0 0 0 0 0
-92 -98 -61 -46 -12 -30 -86 -108 -31 -7 -150 -238 -258 -230 -213 -154 -173 -151 -152 -115 -74 -43 -7 -1 -1 -1 0 -1 -5 -1 0 0 0 0 0 0 0 0 0 0 0 0 0 0 0 0 0 0 0
-156 -167 -88 -52 -4 -23 -69 -59 -110 -15 -82 -17 -280 -272 -249 -202 -177 -191 -191 -128 -47 -11 -4 0 -1 0 -4 -4 0 0 0 0 0 0 0 0 0 0 0 0 0 0 0 0 0 0 0 0 0
-289 -55 -35 -39 -33 -11 -83 -60 -5 -168 -40 -78 -96 -303 -309 -239 -204 -222 -184 -121 -45 -11 -10 -6 -6 -10 -13 -12 -7 0 0 0 0 -1 0 -2 -10 -11 -4 -3 -1 0 -1 -3 0 0 0 -1 -1
-72 -62 -37 -25 -69 -79 -71 -98 -99 -108 -43 -34 -346 -369 -312 -291 -248 -238 -221 -206 -138 -60 -46 -20 -9 -15 -12 -11 -6 -3 -1 -1 -1 -1 -1 -9 -2 -4 -2 -6 0 -1 -1 0 0 -1 -5 -6 -28
-285 -46 -86 -81 -123 -117 -1 -117 -118 -84 -8 -28 -32 -147 -326 -320 -282 -266 -285 -296 -294 -188 -97 -69 -34 -32 -27 -25 -17 -7 -4 -3 -2 -2 -15 -25 -3 -8 -5 -7 -14 -12 -19 -14 -9 -6 -15 -17 -39
-67 -164 -188 -166 -179 -101 0 -21 -78 -65 -7 -5 -42 -350 -322 -308 -253 -230 -267 -228 -234 -215 -162 -111 -78 -63 -50 -43 -38 -33 -12 -17 -16 -31 -28 -14 -26 -26 -25 -34 -40 -80 -54 -51 -31 -60 -56 -42 -35
-224 -137 -53 -199 -150 -83 -39 -3 -10 -11 -15 -15 -349 -328 -281 -275 -252 -232 -263 -263 -239 -257 -217 -172 -133 -110 -93 -62 -68 -59 -41 -39 -51 -49 -39 -41 -56 -73 -63 -72 -88 -70 -68 -74 -65 -87 -89 -87 -83
-254 -202 -228 -206 -157 -37 -24 -14 -12 -10 -8 -18 -388 -321 -271 -256 -249 -227 -220 -218 -241 -228 -231 -265 -220 -174 -150 -140 -151 -162 -141 -108 -96 -80 -76 -82 -98 -96 -108 -102 -112 -104 -84 -81 -87 -74 -93 -86 -104
-275 -158 -141 -40 -47 -86 -36 -23 -10 -16 -14 -30 0 -440 -298 -276 -246 -245 -247 -266 -250 -258 -188 -183 -122 -214 -251 -276 -324 -286 -229 -194 -142 -136 -121 -126 -173 -125 -132 -118 -85 -123 -116 -96 -82 -62 -54 -57 -75
-219 -137 -86 -57 -38 -30 -17 -10 -28 -23 -12 -38 -81 0 0 -402 -318 -280 -260 -245 -247 -209 -202 -174 -165 -141 -103 -105 -146 -389 -228 -169 -158 -146 -181 -171 -131 -198 -156 -108 -89 -78 -132 -118 -90 -58 -57 -63 -51
-88 -87 -64 -58 -20 -31 -15 -11 -13 -52 -31 -52 -63 -154 0 -148 -321 -317 -319 -290 -262 -238 -188 -174 -210 -148 -114 -90 -113 -266 -244 -186 -132 -99 -133 -132 -99 -178 -103 -97 -100 -73 -105 -96 -60 -64 -52 -67 -106
-39 -40 -43 -41 -47 -18 -18 -16 -23 -66 -56 -63 -59 -72 -175 -329 -312 -306 -276 -239 -286 -318 -245 -230 -215 -227 -138 -118 -136 -150 -305 -245 -194 -162 -158 -107 -100 -96 -67 -82 -72 -62 -57 -12 -25 -32 -27 -117 -116
-121 -88 -87 -94 -80 -77 -70 -32 -34 -94 -81 -85 -82 -93 -66 -313 -302 -284 -270 -249 -235 -251 -254 -399 -356 -388 -287 -212 -153 -177 -178 -175 -296 -167 -143 -134 -159 -153 -119 -113 -127 -95 -115 -116 -35 -34 -29 -55 -110
-204 -205 -181 -139 -154 -101 -70 -53 -39 -98 -132 -84 -45 -50 -50 -89 -310 -276 -251 -262 -269 -261 -243 -242 -498 -449 -415 -333 -283 -242 -278 -287 -261 -231 -224 -208 -186 -165 -126 -109 -115 -98 -93 -149 -99 -46 -120 -105 -99
-79 -84 -109 -130 -166 -135 -71 -60 -93 -86 -171 -104 -85 -73 -52 -51 -67 -221 -211 -220 -236 -240 -228 -224 -207 -489 -410 -375 -326 -259 -279 -337 -314 -295 -260 -245 -230 -200 -233 -218 -134 -119 -112 -99 -88 -84 -45 -48 -94
-91 -105 -138 -99 -112 -47 -71 -11 -61 -65 -87 -107 -76 -53 -47 -47 -43 -59 -142 -174 -194 -196 -216 -221 -208 -229 -479 -469 -434 -320 -346 -339 -365 -340 -283 -326 -321 -331 -237 -172 -335 -284 -133 -125 -88 -28 -23 -25 -46
-79 -34 -66 -155 -114 -49 -87 -54 0 -51 -44 -80 -112 -51 -53 -44 -63 -43 -31 -39 -172 -73 -70 -100 -203 -225 -215 -174 -388 -332 -341 -354 -345 -327 -286 -255 -199 -161 -103 -63 -69 -208 -147 -188 -47 -43 -32 -23 -11
-41 -58 0 -53 -26 -10 -39 -85 0 -18 -65 -71 -70 -55 -60 -69 -57 -43 -41 -41 -46 -61 -73 -51 -62 -68 -73 -89 -98 -102 -101 -82 -62 -32 -34 -23 -226 -181 -131 -81 -40 -42 -32 -32 -48 -46 -31 -24 -29
-95 -26 -27 -14 0 -2 0 -91 -60 -65 -68 -75 -68 -65 -39 -51 -46 -48 -53 -69 -44 -38 -39 -51 -35 -29 -20 -27 -54 -63 -57 -64 -44 -33 -35 -36 -184 -168 -65 -40 -34 -36 -33 -32 -33 -24 -25 -42 -51
-14 -19 -9 -6 0 0 0 -6 0 0 -82 -70 -55 -76 -34 -53 -263 -110 -52 -53 -60 -36 -22 -17 -14 -10 -8 -21 -25 -32 -28 -41 -46 -379 -361 -258 -218 -158 -89 -84 -23 -24 -27 -36 -31 -26 -33 -39 -31
-4 0 0 0 0 0 0 0 -114 0 -88 -64 -50 -44 -29 -9 -20 -95 -188 -165 -155 -129 -99 -77 -55 -51 -27 -22 -19 -19 -12 -22 -441 -370 -320 -273 -236 -85 -164 -553 -37 -34 -37 -51 -61 -30 -23 -19 -19
-2 0 0 0 0 0 0 0 0 0 0 0 0 0 0 -108 -226 -188 -162 -147 -136 -146 -183 -195 -220 -188 -135 -99 -57 -144 -194 -169 -140 -82 -58 -159 -109 -107 -115 -206 -295 -108 -39 -55 -40 -12 -26 -34 -39
0 0 0 0 0 0 0 0 0 0 0 0 0 -214 -288 -259 -218 -208 -194 -500 -411 -421 -456 -414 -334 -280 -218 -159 -86 -136 -227 -138 -88 -52 -67 -57 -108 -123 -177 -115 -127 -73 -68 -34 -33 -65 -30 -37 -43
-1 0 0 0 0 0 0 0 0 0 0 -184 -225 -192 -207 -198 -515 -503 -498 -426 -353 -286 -246 -209 -154 -113 -128 -89 -64 -60 -59 -20 -40 -24 -59 -66 -74 -428 -337 -453 -79 -64 -88 -30 -44 -51 -62 -63 -65
Wind_Speed
19 16 23 23 20 21 23 nan nan nan 16 15 nan nan nan 10 10 nan nan nan 7 7 8 13 18 19 19 18 17 17 19 18 17 14 16 18 18 18 19 20 20 19 17 18 16 16 15 14 15
15 15 19 24 21 nan nan 22 13 16 11 4 nan 10 9 10 5 5 nan 7 12 9 6 10 17 19 19 18 17 17 18 18 18 16 15 17 18 19 21 23 24 21 20 19 17 15 14 16 16
13 16 15 19 21 nan 20 18 17 15 14 10 nan 8 9 9 2 nan 5 8 9 10 6 11 18 19 20 19 18 19 17 18 19 18 17 17 16 15 18 21 23 23 20 18 16 15 14 13 13
14 17 20 18 18 nan 20 18 14 13 14 7 nan 7 9 9 nan 7 11 14 12 10 9 15 17 18 19 19 18 19 17 19 19 19 19 17 16 17 18 20 21 24 22 21 19 16 14 12 12
13 14 18 16 20 nan nan 14 14 11 7 nan nan 9 9 11 10 15 15 11 11 11 9 13 17 18 19 19 20 20 20 19 19 18 19 18 18 18 18 18 20 23 22 19 22 21 16 11 10
13 14 nan nan nan nan nan 12 11 9 nan 9 3 8 13 11 14 15 15 13 10 9 9 11 18 19 18 19 20 20 20 19 20 20 18 17 17 18 18 19 20 22 24 22 22 23 18 13 11
9 8 11 17 nan nan 14 11 13 nan nan nan nan 6 10 10 12 15 13 12 12 11 9 9 11 17 21 20 21 20 21 21 21 22 20 18 18 18 19 20 22 23 22 22 21 21 20 12 12
9 9 12 17 nan nan 10 10 nan nan 5 8 nan 11 10 9 11 8 9 9 9 8 8 6 7 11 11 14 22 21 21 21 21 21 21 21 19 17 18 18 19 20 21 20 22 20 23 14 15
8 nan 10 15 14 nan 10 1 nan 4 8 nan nan 6 5 14 9 7 7 6 7 9 7 5 4 5 6 8 13 19 21 22 23 22 23 19 12 13 15 15 18 20 19 19 18 20 25 14 20
nan nan 8 10 12 13 nan nan 9 1 3 nan 4 10 13 11 9 10 11 13 11 13 11 7 4 4 5 7 7 7 8 7 8 10 12 11 10 10 13 14 18 19 19 17 18 19 23 22 10
nan nan 16 16 18 13 nan nan 7 9 nan 5 7 17 14 10 7 8 10 15 18 16 14 14 9 6 5 6 3 3 3 3 4 7 7 7 6 6 6 6 8 7 14 9 10 9 10 12 9
2 6 10 20 19 18 nan nan nan 4 9 7 14 19 16 11 9 11 12 9 11 13 13 11 11 9 7 5 3 0 1 2 3 4 5 3 3 4 4 5 6 6 6 7 6 5 6 8 8
4 7 12 20 13 12 nan nan nan 7 6 9 nan 15 17 15 13 12 12 9 6 12 12 11 10 9 7 6 3 1 4 4 4 4 6 5 4 5 4 6 6 7 7 8 8 7 5 3 3
6 8 12 15 15 2 nan nan nan 10 9 11 nan 14 15 17 18 13 11 11 12 12 12 11 12 11 9 10 10 8 7 7 6 7 7 8 8 8 7 7 8 9 10 10 10 8 7 4 3
4 5 7 14 12 4 8 nan 10 10 11 14 nan nan 17 21 17 21 20 18 18 15 13 16 15 14 15 17 16 13 9 8 10 11 10 11 11 12 12 10 9 11 11 11 9 10 9 8 6
8 7 9 16 9 13 7 15 10 8 10 11 15 nan nan nan 25 24 21 21 18 15 18 16 18 19 18 18 15 14 13 10 11 10 8 11 12 12 10 9 9 9 9 9 9 8 9 11 11
15 12 17 25 19 13 15 19 17 15 13 15 17 nan nan nan nan nan 23 23 20 22 18 18 21 21 21 17 14 13 11 9 7 6 6 8 10 11 11 10 10 9 8 7 7 8 11 10 11
nan nan nan nan 19 14 17 18 17 18 16 16 16 17 nan nan nan nan nan 19 18 19 18 17 17 17 16 12 11 10 12 13 12 11 10 12 11 12 13 11 10 11 11 12 11 10 11 11 12
17 15 20 18 19 15 16 15 18 15 13 17 16 16 15 nan nan nan 15 11 11 10 12 14 14 18 14 11 12 10 12 11 11 11 13 13 13 14 16 16 15 15 15 13 14 14 13 13 14
18 20 19 21 20 9 9 13 12 10 19 22 20 19 18 14 nan nan 10 9 13 16 15 12 16 18 18 18 17 17 17 16 16 15 15 16 17 17 18 18 19 19 16 17 19 19 16 16 20
nan nan nan nan 14 10 6 10 11 11 10 15 21 18 19 20 18 nan nan 13 11 13 14 17 19 18 17 21 15 12 10 14 20 21 21 22 24 23 22 20 17 18 21 20 24 26 25 19 22
nan 17 nan 8 11 5 8 nan 14 11 10 16 21 20 22 22 15 14 nan nan 17 21 17 15 14 15 18 26 23 27 25 23 23 24 26 28 30 29 29 29 30 25 21 21 24 28 25 27 20
16 nan nan nan 7 9 10 5 nan 3 6 15 18 16 19 19 21 24 24 23 23 16 14 16 16 16 23 30 30 26 28 27 27 30 31 31 31 30 30 29 26 28 29 22 18 22 31 30 27
15 nan nan 16 12 nan nan 3 nan nan 7 7 9 16 16 19 25 28 27 21 23 23 23 14 25 26 29 31 35 38 38 35 34 35 35 35 31 32 33 36 29 27 30 27 25 22 22 28 32
19 nan nan nan nan nan nan 7 8 nan nan 0 7 12 15 17 21 32 32 29 27 27 28 28 31 31 32 34 33 36 35 33 30 34 38 39 43 45 42 37 38 32 31 27 26 29 27 33 32
nan nan nan nan nan nan nan nan nan nan nan nan nan nan 11 15 16 22 24 23 22 21 23 25 28 27 29 29 31 31 34 41 43 45 47 55 54 62 57 47 43 37 35 30 31 30 28 33 36
nan nan nan nan nan nan nan nan nan nan nan nan nan nan nan nan nan 16 18 21 25 27 29 31 29 29 33 35 40 44 47 50 48 50 51 51 49 55 34 nan 43 34 38 37 36 34 31 37 36
nan nan nan nan nan nan nan nan nan nan nan nan nan nan nan nan nan nan 21 22 25 30 33 35 36 35 36 37 42 44 48 51 50 49 42 41 42 51 46 44 39 43 29 35 44 42 34 40 35
nan nan nan nan nan nan nan nan nan nan nan nan nan nan nan nan 20 19 22 25 32 40 39 39 40 40 41 41 47 52 52 52 48 44 43 45 40 48 44 38 40 37 40 45 58 44 37 41 37
nan nan nan nan nan nan nan nan nan nan nan nan nan nan nan 25 24 25 28 32 40 45 45 49 50 52 50 47 52 54 54 51 46 43 40 41 35 41 37 33 33 31 25 37 51 38 36 47 44
Wind_Direction
69 92 99 103 102 93 81 nan nan nan 59 68 nan nan nan 95 76 nan nan nan 317 328 16 351 348 4 14 23 21 14 14 6 0 7 14 17 25 33 39 43 37 40 45 53 53 57 68 75 84
75 66 99 103 100 nan nan 103 77 71 62 43 nan 65 64 71 89 43 nan 44 345 342 7 355 349 6 13 17 22 21 13 12 10 14 19 25 22 25 32 37 43 44 42 46 53 58 55 65 72
60 85 84 81 83 nan 91 89 87 88 48 75 nan 104 81 86 29 nan 97 15 8 1 21 14 360 9 11 19 23 27 23 24 25 22 20 22 22 26 36 38 44 52 61 54 51 56 59 65 73
67 86 96 88 90 nan 72 69 62 47 70 84 nan 104 87 68 nan 52 6 8 7 9 15 17 16 12 14 21 30 32 33 35 32 28 29 32 30 34 47 52 50 51 49 64 71 67 59 54 64
85 91 101 106 96 nan nan 50 50 49 52 nan nan 70 55 57 355 359 9 13 0 359 20 28 19 18 19 25 33 36 35 36 38 40 42 42 40 40 46 53 49 49 48 56 58 61 66 65 64
64 70 nan nan nan nan nan 45 57 79 nan 38 50 51 46 12 354 0 10 12 10 359 14 32 18 21 20 31 34 35 37 38 43 44 43 47 46 45 45 49 51 55 59 64 55 53 49 57 70
84 110 99 105 nan nan 80 71 63 nan nan nan nan 41 74 43 11 354 0 11 4 1 6 25 35 22 23 28 35 36 37 43 45 48 45 45 44 47 50 53 57 60 57 59 56 51 51 64 74
124 110 125 115 nan nan 53 89 nan nan 80 5 nan 26 44 47 360 349 347 15 11 13 10 25 43 40 40 39 30 33 36 39 43 45 47 48 50 49 53 56 61 65 62 62 54 51 48 84 86
119 nan 140 144 143 nan 48 79 nan 103 0 nan nan 8 25 325 334 327 335 14 22 26 28 34 43 60 46 52 49 37 41 46 51 54 54 53 52 57 58 61 54 59 59 58 53 48 54 91 88
nan nan 128 130 126 130 nan nan 24 10 40 nan 209 277 306 321 339 342 4 12 20 23 27 31 42 58 66 62 65 59 60 65 65 66 66 69 58 54 50 54 61 59 56 53 60 59 57 75 102
nan nan 89 84 120 122 nan nan 38 318 nan 63 355 311 316 341 4 7 25 22 20 20 31 34 39 50 63 82 98 114 99 88 73 56 60 66 62 54 58 47 56 51 66 56 53 60 63 75 81
283 102 98 95 117 123 nan nan nan 77 83 346 346 324 333 354 15 28 31 31 24 24 32 34 39 41 59 96 113 134 81 80 69 61 53 55 69 46 43 51 51 50 53 61 66 46 54 63 82
239 115 138 113 89 142 nan nan nan 89 30 335 nan 338 348 2 20 47 42 40 28 21 22 26 26 34 42 64 97 30 23 22 29 29 24 3 22 38 30 42 41 34 36 48 44 39 43 45 84
283 65 99 132 124 169 nan nan nan 83 29 10 nan 3 13 13 17 34 42 31 30 17 16 8 19 19 16 33 38 32 10 11 16 26 29 22 25 34 32 37 32 28 20 20 20 21 6 10 351
189 124 82 103 170 132 88 nan 101 49 21 22 nan nan 41 46 32 33 30 31 31 28 19 22 27 25 27 34 42 49 56 49 53 51 43 42 40 48 48 48 53 54 38 25 18 4 358 360 353
191 147 132 115 103 108 108 91 81 49 21 24 25 nan nan nan 46 42 34 38 38 33 26 35 38 36 44 51 54 55 56 54 59 61 50 40 36 30 30 32 43 44 42 35 19 8 12 12 357
191 120 120 115 91 90 82 84 65 53 61 58 53 nan nan nan nan nan 47 50 47 42 42 48 38 37 36 36 27 25 30 29 34 24 23 25 28 14 5 4 8 351 350 352 359 351 349 353 349
nan nan nan nan 95 80 77 78 69 59 60 66 66 64 nan nan nan nan nan 61 62 58 55 51 40 35 31 24 17 360 351 359 4 11 7 7 0 1 347 344 348 329 325 326 326 332 320 318 324
143 110 114 99 91 81 69 73 64 57 64 62 60 66 61 nan nan nan 75 52 53 57 46 31 24 26 2 354 350 351 358 356 356 355 1 349 342 342 340 333 330 323 327 335 325 313 318 304 300
136 128 121 117 95 68 56 75 83 57 61 49 41 45 46 53 nan nan 57 41 21 24 28 28 27 18 14 11 5 354 341 344 338 329 325 321 317 320 325 328 324 324 323 324 319 315 299 296 301
nan nan nan nan 146 135 82 80 87 104 87 46 48 47 60 67 69 nan nan 36 26 15 10 20 25 19 15 19 7 344 328 330 326 327 326 332 326 321 322 317 318 324 318 318 315 310 315 310 303
nan 97 nan 180 201 145 143 nan 96 104 78 49 37 27 45 58 76 79 nan nan 43 35 11 18 21 16 17 5 359 358 355 352 346 332 329 326 328 325 319 318 313 306 304 308 310 307 312 307 314
121 nan nan nan 168 154 136 136 nan 141 83 61 33 32 63 47 61 66 64 61 40 33 28 19 12 8 359 356 360 351 349 342 335 323 320 316 311 313 310 302 300 303 299 303 300 298 305 305 305
155 nan nan 175 152 nan nan 180 nan nan 54 62 32 28 61 54 41 43 41 39 40 27 20 11 3 360 352 350 352 350 348 343 327 318 318 309 299 290 292 297 298 295 293 300 305 302 294 292 297
179 nan nan nan nan nan nan 193 129 nan nan 177 30 48 65 64 42 34 29 24 21 9 3 353 348 357 343 344 340 339 340 325 308 294 297 291 287 283 276 274 281 281 294 293 288 291 300 300 298
nan nan nan nan nan nan nan nan nan nan nan nan nan nan 104 70 32 16 17 23 14 357 342 337 336 348 318 322 326 321 312 307 302 296 295 291 285 297 276 259 258 270 278 282 287 287 291 293 291
nan nan nan nan nan nan nan nan nan nan nan nan nan nan nan nan nan 328 341 346 348 341 333 329 323 323 322 325 321 321 317 316 309 301 295 293 294 300 315 nan 260 257 288 288 284 286 286 300 291
nan nan nan nan nan nan nan nan nan nan nan nan nan nan nan nan nan nan 332 325 318 307 306 301 309 319 317 319 315 311 308 304 302 304 309 313 304 298 320 318 312 301 282 277 284 283 286 296 287
nan nan nan nan nan nan nan nan nan nan nan nan nan nan nan nan 300 303 300 295 294 293 295 302 304 304 303 301 305 306 307 308 305 299 304 310 295 291 304 308 306 324 338 311 284 274 293 299 289
nan nan nan nan nan nan nan nan nan nan nan nan nan nan nan 304 300 293 288 283 284 289 294 298 299 298 298 302 303 303 302 304 304 299 295 296 302 304 309 307 299 309 322 307 319 295 285 302 293